Temp
-18 -18 -18 -17 -16 -16 -16 -16 -15 -14 -15 -15 -15 -15 -15 -14 -14 -14 -15 -16 -15 -16 -16 -16 -16 -16 -16 -16 -16 -15 -15 -15 -15 -15 -15 -15 -15 -15 -15 -15 -15 -16 -16
-19 -19 -18 -18 -18 -17 -17 -18 -17 -17 -16 -17 -16 -16 -17 -16 -16 -16 -15 -16 -16 -16 -16 -16 -16 -16 -16 -17 -17 -16 -16 -16 -15 -15 -15 -15 -15 -15 -15 -15 -16 -16 -16
-18 -19 -19 -19 -19 -18 -18 -18 -18 -18 -17 -18 -18 -18 -17 -17 -17 -17 -17 -16 -16 -16 -16 -16 -16 -17 -17 -17 -17 -17 -17 -17 -16 -16 -16 -16 -16 -16 -16 -16 -16 -17 -17
-20 -20 -20 -19 -19 -19 -19 -18 -18 -18 -18 -18 -18 -18 -18 -18 -18 -17 -17 -17 -17 -17 -17 -17 -17 -18 -18 -18 -18 -18 -18 -18 -17 -17 -17 -17 -17 -17 -17 -18 -18 -18 -18
-20 -21 -21 -20 -20 -20 -20 -20 -19 -18 -18 -19 -19 -19 -19 -19 -19 -18 -18 -18 -18 -17 -17 -17 -18 -18 -18 -18 -18 -18 -18 -18 -18 -18 -18 -17 -18 -17 -18 -18 -18 -19 -19
-22 -22 -22 -21 -21 -21 -21 -21 -20 -19 -19 -19 -19 -19 -19 -19 -19 -19 -19 -19 -19 -18 -18 -18 -18 -18 -19 -19 -19 -19 -18 -18 -18 -18 -18 -18 -18 -18 -18 -19 -19 -19 -20
-23 -22 -22 -22 -22 -22 -22 -21 -21 -21 -20 -19 -19 -20 -20 -19 -20 -19 -19 -18 -19 -18 -19 -19 -18 -18 -19 -19 -19 -19 -19 -19 -18 -19 -18 -18 -18 -19 -19 -19 -19 -20 -20
-24 -23 -23 -23 -23 -23 -23 -22 -22 -22 -21 -21 -21 -21 -21 -20 -21 -21 -20 -20 -20 -19 -19 -19 -19 -19 -19 -19 -19 -19 -19 -19 -19 -19 -19 -18 -18 -19 -19 -19 -20 -20 -20
-26 -25 -25 -24 -24 -23 -23 -23 -23 -22 -22 -22 -21 -22 -22 -22 -22 -21 -22 -21 -21 -21 -20 -20 -20 -20 -20 -20 -20 -20 -20 -19 -19 -19 -19 -19 -19 -19 -19 -20 -20 -20 -20
-28 -28 -27 -27 -26 -26 -25 -24 -24 -23 -23 -23 -22 -22 -22 -22 -22 -22 -22 -22 -21 -22 -21 -21 -21 -20 -20 -20 -20 -20 -20 -20 -20 -20 -19 -19 -20 -20 -20 -20 -20 -20 -21
-29 -29 -28 -28 -28 -28 -27 -26 -26 -25 -24 -24 -24 -23 -22 -22 -22 -22 -22 -22 -22 -22 -22 -21 -21 -21 -21 -20 -22 -21 -21 -20 -20 -19 -19 -20 -20 -20 -20 -20 -21 -21 -21
-29 -28 -28 -28 -28 -28 -28 -27 -27 -27 -26 -26 -25 -24 -24 -24 -23 -23 -23 -22 -22 -22 -22 -21 -22 -22 -22 -21 -21 -21 -21 -21 -21 -20 -20 -20 -20 -20 -21 -21 -21 -21 -22
-29 -29 -29 -28 -28 -28 -27 -27 -27 -27 -27 -27 -26 -26 -25 -25 -26 -25 -23 -24 -23 -23 -23 -22 -22 -22 -23 -22 -22 -21 -21 -21 -20 -20 -20 -20 -20 -21 -21 -21 -22 -22 -22
-30 -30 -30 -30 -29 -29 -28 -27 -27 -27 -27 -27 -27 -27 -26 -26 -26 -26 -26 -25 -24 -24 -23 -23 -23 -22 -22 -22 -22 -21 -21 -21 -21 -20 -21 -21 -21 -21 -22 -22 -22 -22 -22
-31 -31 -30 -30 -30 -29 -29 -29 -28 -28 -28 -27 -27 -27 -26 -26 -26 -26 -26 -26 -26 -25 -24 -24 -23 -23 -22 -22 -22 -21 -21 -21 -21 -21 -21 -21 -21 -22 -22 -22 -22 -22 -23
-30 -30 -30 -30 -30 -30 -30 -30 -30 -30 -30 -29 -28 -28 -27 -26 -27 -27 -27 -26 -26 -26 -25 -24 -24 -24 -23 -22 -22 -22 -22 -22 -22 -22 -22 -22 -22 -22 -22 -22 -23 -23 -23
-30 -30 -29 -29 -29 -29 -29 -30 -30 -31 -31 -30 -30 -30 -29 -28 -28 -27 -27 -26 -27 -27 -25 -24 -24 -24 -23 -22 -22 -22 -22 -22 -23 -22 -22 -22 -22 -22 -23 -23 -23 -23 -23
-31 -30 -30 -30 -29 -29 -29 -29 -30 -30 -30 -31 -31 -31 -30 -30 -29 -28 -27 -27 -27 -27 -26 -25 -24 -24 -24 -24 -23 -23 -23 -23 -23 -23 -23 -23 -23 -23 -23 -23 -23 -24 -23
-31 -31 -30 -30 -30 -30 -30 -30 -30 -30 -30 -31 -31 -31 -32 -31 -31 -30 -29 -27 -27 -27 -26 -26 -25 -26 -25 -25 -24 -24 -24 -24 -24 -23 -23 -23 -24 -24 -24 -24 -25 -25 -26
-31 -32 -31 -31 -32 -32 -32 -32 -31 -31 -31 -31 -32 -32 -32 -32 -31 -31 -30 -29 -28 -28 -27 -27 -27 -27 -27 -26 -26 -26 -25 -24 -24 -24 -24 -24 -25 -26 -26 -26 -26 -26 -26
-31 -32 -33 -33 -34 -34 -33 -33 -32 -32 -32 -32 -33 -33 -33 -32 -32 -32 -31 -31 -30 -28 -28 -28 -27 -27 -27 -26 -26 -26 -26 -26 -25 -25 -25 -25 -25 -26 -26 -26 -26 -27 -27
-31 -32 -32 -33 -34 -34 -34 -34 -34 -33 -33 -33 -33 -34 -33 -33 -33 -33 -33 -32 -31 -30 -30 -30 -29 -29 -28 -28 -27 -26 -26 -27 -27 -27 -27 -26 -27 -27 -27 -27 -28 -28 -29
-31 -31 -32 -33 -33 -33 -34 -34 -34 -34 -34 -34 -34 -34 -34 -34 -34 -34 -33 -33 -32 -32 -32 -31 -31 -30 -29 -29 -28 -28 -28 -28 -28 -28 -28 -28 -28 -28 -28 -29 -30 -30 -31
-32 -32 -31 -32 -32 -33 -33 -33 -34 -34 -34 -34 -34 -34 -34 -34 -34 -34 -34 -34 -34 -33 -33 -33 -31 -30 -30 -30 -30 -30 -29 -29 -29 -29 -29 -29 -29 -30 -30 -30 -31 -31 -31
-32 -33 -33 -32 -32 -32 -32 -33 -33 -33 -33 -34 -34 -34 -35 -35 -35 -35 -35 -35 -34 -34 -33 -33 -33 -32 -32 -31 -31 -31 -30 -30 -30 -30 -30 -31 -31 -31 -31 -32 -32 -32 -32
-33 -33 -33 -33 -33 -32 -32 -33 -33 -33 -33 -33 -34 -34 -34 -34 -34 -34 -34 -34 -34 -34 -34 -33 -33 -32 -32 -32 -32 -32 -32 -32 -32 -31 -31 -31 -31 -32 -32 -32 -33 -33 -33
Height
5620 5620 5620 5620 5619 5621 5620 5617 5618 5618 5617 5619 5619 5621 5624 5625 5625 5625 5624 5627 5633 5634 5635 5637 5640 5641 5642 5644 5643 5643 5643 5644 5646 5645 5646 5647 5648 5649 5650 5652 5652 5652 5655
5601 5603 5600 5599 5601 5599 5599 5599 5597 5597 5598 5598 5600 5600 5604 5608 5609 5610 5611 5611 5616 5619 5621 5620 5622 5623 5625 5626 5627 5626 5625 5627 5629 5629 5629 5630 5633 5634 5634 5635 5636 5638 5640
5577 5580 5581 5580 5579 5578 5576 5576 5577 5575 5574 5576 5577 5579 5582 5586 5589 5591 5593 5593 5596 5598 5601 5602 5603 5604 5606 5608 5609 5608 5608 5608 5610 5611 5611 5613 5615 5617 5617 5618 5619 5621 5623
5554 5553 5554 5556 5556 5556 5556 5554 5554 5554 5554 5555 5555 5557 5557 5561 5566 5569 5571 5572 5576 5578 5579 5583 5585 5587 5587 5589 5590 5590 5591 5591 5591 5592 5595 5596 5599 5600 5601 5601 5602 5601 5604
5528 5527 5528 5528 5529 5529 5532 5531 5530 5531 5532 5534 5534 5534 5537 5539 5542 5544 5547 5550 5554 5557 5559 5564 5567 5570 5569 5568 5570 5572 5572 5574 5576 5575 5576 5578 5580 5582 5584 5585 5586 5585 5586
5501 5500 5500 5502 5502 5502 5503 5504 5504 5504 5507 5508 5511 5512 5512 5515 5517 5519 5522 5525 5529 5534 5538 5543 5547 5549 5551 5549 5550 5551 5553 5555 5558 5558 5559 5561 5561 5563 5565 5567 5567 5568 5569
5473 5472 5472 5470 5470 5472 5472 5472 5474 5475 5475 5478 5482 5485 5489 5492 5491 5494 5497 5501 5505 5511 5515 5518 5523 5528 5530 5529 5530 5531 5533 5535 5537 5539 5542 5544 5545 5545 5547 5547 5550 5550 5550
5445 5442 5440 5439 5439 5439 5439 5440 5441 5442 5446 5448 5451 5454 5460 5465 5464 5467 5469 5475 5480 5487 5492 5496 5500 5504 5508 5509 5508 5509 5515 5517 5519 5520 5522 5522 5525 5527 5528 5529 5531 5533 5533
5411 5410 5408 5406 5405 5403 5404 5407 5408 5409 5413 5418 5421 5427 5431 5439 5439 5442 5442 5447 5456 5465 5469 5473 5478 5482 5487 5488 5485 5489 5492 5497 5499 5500 5499 5501 5504 5508 5508 5508 5511 5512 5514
5382 5381 5377 5372 5370 5368 5367 5368 5371 5372 5378 5382 5390 5394 5401 5409 5414 5417 5418 5421 5431 5439 5444 5449 5454 5461 5463 5463 5464 5468 5471 5476 5477 5478 5477 5481 5484 5487 5488 5488 5490 5492 5494
5352 5348 5345 5341 5335 5333 5331 5333 5332 5334 5338 5347 5355 5364 5367 5376 5384 5386 5391 5396 5405 5409 5414 5422 5429 5433 5436 5440 5440 5443 5449 5451 5454 5453 5455 5460 5464 5467 5468 5467 5469 5471 5474
5318 5314 5310 5307 5304 5301 5297 5298 5297 5297 5298 5308 5312 5325 5335 5343 5352 5357 5361 5369 5376 5380 5391 5395 5400 5406 5409 5414 5416 5422 5422 5428 5428 5431 5435 5440 5443 5445 5446 5445 5447 5451 5452
5286 5281 5274 5268 5266 5265 5262 5262 5260 5261 5262 5269 5274 5284 5299 5308 5315 5323 5333 5341 5349 5355 5363 5367 5374 5380 5384 5388 5392 5396 5399 5406 5407 5411 5416 5421 5422 5423 5423 5426 5428 5430 5431
5255 5250 5241 5232 5229 5226 5224 5224 5223 5226 5227 5231 5237 5249 5263 5271 5283 5295 5301 5308 5319 5328 5339 5344 5350 5357 5362 5367 5368 5372 5375 5382 5384 5389 5394 5396 5399 5400 5402 5405 5408 5409 5409
5227 5220 5213 5205 5200 5198 5195 5194 5191 5194 5194 5198 5205 5212 5227 5241 5255 5257 5269 5280 5289 5298 5311 5321 5328 5334 5339 5344 5347 5351 5356 5360 5363 5368 5372 5376 5376 5377 5380 5383 5384 5385 5385
5206 5198 5190 5182 5177 5173 5170 5169 5165 5165 5166 5168 5174 5180 5195 5211 5218 5226 5240 5250 5260 5268 5286 5299 5306 5312 5314 5321 5325 5329 5334 5339 5342 5346 5348 5351 5355 5356 5359 5361 5362 5363 5363
5188 5178 5169 5162 5156 5152 5150 5147 5146 5143 5142 5144 5148 5155 5163 5180 5186 5196 5210 5222 5231 5238 5260 5274 5284 5287 5291 5298 5305 5311 5317 5320 5321 5323 5326 5329 5332 5335 5338 5339 5339 5341 5341
5171 5162 5154 5146 5140 5135 5132 5130 5128 5128 5128 5126 5128 5133 5140 5149 5158 5169 5182 5192 5204 5215 5236 5251 5261 5264 5270 5277 5283 5289 5294 5298 5298 5301 5304 5308 5311 5312 5315 5317 5318 5318 5318
5162 5153 5144 5135 5126 5120 5115 5112 5111 5111 5111 5112 5112 5117 5122 5129 5138 5147 5156 5169 5182 5195 5212 5225 5236 5241 5249 5254 5260 5264 5269 5274 5278 5282 5285 5287 5290 5292 5294 5296 5297 5297 5297
5156 5146 5135 5124 5113 5105 5100 5098 5096 5096 5097 5098 5100 5104 5108 5115 5123 5130 5139 5150 5160 5173 5188 5204 5215 5223 5229 5230 5238 5245 5250 5254 5257 5262 5265 5269 5272 5275 5276 5278 5279 5280 5278
5153 5142 5131 5119 5110 5103 5098 5093 5090 5088 5088 5089 5091 5094 5098 5104 5110 5117 5126 5133 5140 5154 5170 5184 5196 5200 5202 5209 5217 5226 5233 5236 5239 5243 5246 5249 5252 5256 5257 5259 5259 5258 5256
5149 5141 5131 5122 5114 5107 5101 5096 5090 5086 5085 5084 5086 5088 5091 5096 5101 5107 5113 5121 5130 5140 5153 5163 5172 5176 5182 5191 5199 5207 5215 5219 5223 5226 5229 5232 5234 5236 5237 5238 5238 5237 5236
5147 5140 5132 5124 5116 5110 5105 5099 5094 5088 5084 5083 5083 5084 5087 5091 5094 5099 5104 5110 5118 5127 5135 5145 5152 5160 5170 5178 5186 5192 5198 5202 5205 5208 5211 5214 5216 5218 5219 5220 5219 5219 5217
5151 5142 5133 5126 5120 5114 5108 5103 5099 5095 5091 5087 5085 5085 5086 5089 5091 5095 5100 5105 5111 5118 5125 5133 5142 5151 5159 5167 5172 5176 5181 5185 5188 5190 5193 5196 5198 5200 5200 5201 5200 5200 5200
5154 5145 5138 5130 5122 5116 5112 5108 5103 5099 5097 5095 5094 5093 5093 5093 5095 5097 5101 5105 5110 5114 5120 5127 5134 5141 5147 5153 5158 5162 5166 5169 5173 5175 5178 5181 5183 5184 5185 5184 5185 5184 5182
5156 5148 5141 5134 5127 5120 5114 5109 5106 5103 5100 5098 5097 5096 5096 5097 5099 5101 5103 5106 5109 5112 5115 5120 5126 5132 5137 5142 5145 5148 5152 5156 5160 5163 5165 5167 5169 5169 5169 5169 5169 5168 5167
Wind_Speed
67 62 62 64 65 67 70 71 75 78 77 73 70 65 66 68 68 69 63 59 61 60 59 55 54 55 57 59 60 60 60 58 58 56 54 53 51 50 51 52 52 53 53
65 63 66 68 68 70 72 72 72 73 73 70 70 67 62 63 68 69 67 62 64 66 64 64 63 64 65 62 61 59 59 60 60 59 58 56 55 54 52 51 52 52 55
70 70 72 75 75 77 77 76 76 76 75 73 71 67 66 65 69 71 70 69 70 75 73 70 70 70 71 67 65 59 59 60 60 60 61 59 57 55 52 53 55 57 58
80 82 81 79 77 76 84 82 83 81 78 78 77 77 74 74 77 76 77 76 76 76 75 75 75 73 73 72 68 62 59 60 62 62 61 59 57 56 55 53 55 56 57
92 88 84 83 79 79 80 86 91 90 88 84 84 85 84 81 81 82 83 84 83 83 84 83 82 73 72 75 71 69 63 62 59 61 62 62 59 58 59 59 59 56 53
92 91 88 86 87 85 87 86 88 98 99 92 89 90 87 84 84 86 86 84 87 83 81 81 81 78 73 73 68 66 63 63 60 60 62 64 64 63 62 61 59 57 56
94 95 97 98 95 95 93 93 86 91 97 100 93 89 87 88 87 85 88 93 92 85 82 84 81 82 78 76 71 68 67 65 63 62 63 65 67 67 67 62 59 57 59
97 99 100 103 104 101 99 99 103 98 96 96 97 94 90 89 87 86 90 91 86 85 75 76 80 81 75 73 71 69 65 67 66 67 70 69 71 73 69 66 62 61 62
97 97 98 99 100 103 105 104 105 107 105 100 98 93 93 90 88 84 82 86 84 80 81 80 78 78 71 72 72 72 73 72 70 71 74 77 75 70 67 66 67 66 67
92 92 94 98 99 100 101 103 105 108 107 108 107 104 99 93 91 88 87 88 84 82 83 81 85 77 81 74 77 78 79 74 74 75 78 78 70 68 67 67 65 65 66
94 94 94 94 95 95 97 98 100 103 107 105 101 104 107 100 96 97 92 92 84 85 86 82 82 83 84 85 72 80 74 76 80 83 81 74 73 69 68 69 65 64 61
95 95 95 94 94 94 95 95 95 97 99 99 103 102 100 102 104 98 90 89 88 84 84 80 79 77 71 74 75 74 76 75 83 80 75 76 69 68 65 65 63 65 64
91 91 92 93 93 93 95 97 100 100 100 97 96 96 95 93 93 95 103 90 85 74 77 77 78 76 74 72 72 73 79 74 77 79 79 74 70 71 65 63 66 65 67
82 80 81 83 84 85 89 91 94 96 98 100 100 94 89 91 89 88 88 91 87 85 75 76 74 75 76 70 69 72 73 75 74 80 77 73 78 68 61 63 66 66 69
69 69 70 71 71 72 74 77 82 85 90 94 96 96 92 88 85 85 90 88 85 82 75 74 76 75 70 71 65 70 67 60 64 65 72 69 68 65 65 67 65 66 63
65 64 62 61 59 58 58 58 63 68 74 78 84 88 87 86 86 84 81 83 83 85 75 76 79 74 69 79 67 64 59 55 60 64 64 64 68 66 73 73 72 72 70
55 56 55 53 51 50 52 54 50 51 53 60 66 69 74 75 79 82 79 80 83 85 80 69 79 72 72 80 77 67 66 69 69 69 68 72 75 79 76 74 73 81 86
52 48 46 46 47 46 47 47 48 48 48 51 52 54 59 63 67 73 75 76 79 84 78 80 79 73 72 72 77 72 62 66 70 73 73 79 82 84 80 76 76 77 80
41 38 38 43 47 47 47 45 42 42 44 45 48 47 48 51 55 62 69 72 75 79 83 81 80 75 71 68 66 69 68 69 73 75 73 76 71 66 71 71 71 68 66
39 37 38 40 36 33 34 33 33 33 34 36 39 41 42 44 47 55 63 66 72 75 77 79 76 72 72 70 68 66 70 70 69 70 66 63 58 56 55 57 59 67 72
33 35 32 29 24 23 22 20 20 21 24 26 30 31 34 37 41 48 53 60 67 72 73 77 77 65 66 68 69 66 62 59 59 63 63 64 64 63 62 62 65 66 68
30 30 29 24 24 24 27 27 20 16 15 17 21 25 27 30 34 38 43 50 57 63 68 71 73 69 63 62 62 68 67 63 62 62 62 63 61 61 62 65 67 66 68
29 25 26 25 21 21 22 22 27 28 13 13 17 20 21 23 25 28 34 39 44 48 54 57 62 64 61 63 60 59 60 61 61 61 61 59 58 59 61 62 62 61 60
38 38 31 24 23 22 18 16 18 20 24 19 8 3 6 9 13 17 20 26 32 38 44 46 51 54 57 56 53 53 55 56 56 56 57 58 58 58 56 56 55 54 56
36 38 39 39 34 24 20 19 15 13 15 16 11 11 9 5 5 7 9 13 19 24 32 42 46 46 47 47 47 50 55 52 52 52 53 51 51 51 51 49 49 52 54
32 34 36 37 36 35 32 23 15 12 9 10 10 7 4 3 1 3 7 9 13 17 22 27 35 47 50 48 46 44 43 43 43 44 44 44 45 45 45 47 49 51 53
Wind_Direction
254 252 248 249 249 252 257 259 259 259 261 258 258 258 260 256 251 246 242 241 245 244 244 246 253 264 267 268 270 269 269 267 266 267 267 268 268 268 269 271 271 269 267
256 252 247 245 252 250 252 258 256 257 256 255 255 253 252 253 250 246 247 242 244 247 247 249 256 265 270 265 265 265 268 268 266 266 268 267 268 269 271 274 274 272 272
259 262 260 257 256 256 255 251 250 249 249 248 246 246 247 247 245 244 244 246 245 247 249 254 262 268 270 271 267 267 268 271 271 270 268 268 268 269 270 271 272 271 272
271 271 270 265 260 257 256 256 254 249 247 248 246 247 241 241 244 243 245 247 249 251 256 260 264 266 269 273 270 269 272 273 276 275 272 269 269 269 269 267 269 269 272
272 271 267 264 263 262 258 256 255 257 252 248 245 245 245 243 243 244 245 247 249 253 256 259 260 263 269 272 273 272 272 274 273 273 274 272 269 270 270 269 269 267 268
270 270 268 264 264 265 263 261 256 251 252 250 249 247 244 247 248 247 248 250 252 254 257 256 259 263 265 268 270 272 272 272 271 266 268 270 270 270 271 270 267 265 264
270 268 267 267 269 269 263 261 258 254 255 249 247 247 251 253 260 258 254 252 258 257 255 252 260 266 266 263 265 269 269 270 269 265 268 269 268 268 268 264 265 262 263
270 268 267 266 266 265 264 262 261 259 257 258 258 260 259 260 264 265 265 264 264 264 262 259 261 263 261 260 259 262 265 268 268 267 266 268 268 268 264 261 262 262 264
276 274 272 269 267 266 264 261 261 262 261 258 258 258 260 259 259 256 256 263 261 255 256 258 260 257 259 258 259 261 262 264 267 271 268 268 267 266 263 261 260 261 264
276 275 274 273 272 269 266 263 260 259 258 258 255 256 258 256 255 253 255 258 258 256 255 253 255 255 253 255 256 259 261 262 264 267 268 269 264 263 262 262 260 257 258
278 276 275 273 272 271 269 267 264 261 260 258 256 255 255 253 253 253 249 253 252 253 251 254 258 260 258 256 265 262 263 262 260 261 267 267 265 262 260 257 259 254 256
280 279 277 274 273 272 271 269 267 265 263 259 257 255 253 254 251 249 248 248 249 247 251 254 258 260 259 261 262 261 263 263 266 264 259 266 259 262 256 254 252 254 259
282 281 279 277 274 271 268 266 265 264 263 261 259 256 253 252 251 252 251 251 250 248 245 248 254 256 255 260 258 254 253 258 261 264 260 259 258 256 254 252 254 260 265
287 285 281 278 275 272 269 266 264 262 262 261 260 257 253 252 250 247 248 249 249 249 249 249 249 253 255 253 254 253 251 248 253 254 260 253 258 256 249 259 256 262 266
289 288 287 285 283 280 276 272 268 264 261 259 258 257 253 251 251 248 245 247 248 247 243 245 244 244 249 245 252 250 248 252 254 253 252 260 251 249 257 257 253 260 264
301 298 293 289 285 281 279 278 275 269 264 262 259 256 253 250 250 249 245 243 243 246 242 239 242 239 244 244 246 244 245 253 253 257 258 261 253 249 251 255 254 264 266
303 300 298 296 288 282 279 278 277 272 269 265 261 258 254 249 246 245 243 240 236 238 240 239 234 233 236 239 242 242 244 247 253 251 248 251 257 263 254 257 251 258 262
311 307 305 300 293 287 283 279 274 270 266 265 264 260 255 250 244 241 239 237 235 233 235 238 234 236 237 241 240 241 247 252 247 246 255 257 265 262 251 255 256 256 259
322 318 313 308 300 292 287 283 277 271 267 262 260 259 254 247 241 237 234 233 231 230 228 231 233 241 242 241 244 244 251 253 252 255 258 261 265 264 259 260 260 260 263
326 323 323 321 317 311 298 289 283 276 269 262 257 252 249 245 239 235 233 229 228 228 226 227 232 238 245 249 249 254 255 253 252 253 255 256 255 260 264 269 269 268 267
338 344 344 346 346 343 334 321 302 284 271 261 255 251 249 245 239 235 232 230 228 226 226 223 224 230 231 235 239 238 242 241 243 246 248 250 256 263 270 264 263 265 268
338 348 356 3 17 18 15 9 349 308 281 259 247 243 243 242 239 235 232 230 230 229 226 227 228 233 232 231 233 238 242 242 245 248 252 256 262 263 264 265 265 266 268
3 2 4 9 11 10 9 6 8 14 336 284 264 252 246 242 238 234 230 227 226 227 226 224 223 231 233 239 239 241 243 247 250 254 257 258 258 259 260 262 264 266 268
17 18 10 359 2 9 14 16 16 12 20 26 13 310 246 230 222 223 225 225 223 223 223 227 228 228 233 239 240 241 242 245 250 251 253 255 258 260 262 263 266 268 270
10 12 15 17 15 1 358 7 8 10 13 19 36 44 54 81 142 178 202 220 223 227 227 227 226 225 227 233 239 243 247 253 251 251 252 255 257 260 260 260 264 268 272
5 6 7 8 10 13 14 360 347 357 1 355 357 360 347 12 172 226 229 223 227 232 236 233 231 233 238 244 249 250 248 247 248 250 253 254 254 254 257 262 269 271 273